Location: LDNL
(36.4545°S, 141.6685°E)
Time: 10:16:54
(UTC+11:00)

Courier 1B - Pass Details

Date: 09 February 2023
Orbit: 962 x 1209 km, 28.3° (Epoch: 21 March)

Event Time Altitude Azimuth Distance (km) Brightness Sun altitude
Exits shadow 06:16:39 - 304° (NW) 3,186 9.5 -8.5°
Reaches altitude 10° 06:17:01 10° 307° (NW) 3,139 9.5 -8.4°
Maximum altitude 06:20:00 12° 330° (NNW) 2,954 9.5 -7.9°
Drops below altitude 10° 06:22:59 10° 352° (N) 3,141 9.8 -7.3°
Sets 06:27:58 0° 19° (NNE) 4,086 10.7 -6.4°
